General José María Yáñez International Airport
MMGM : now visible

Airfield :











YOU CAN JOIN US ON...

 
LOGIN :

Register | Disclaimer

   EN    FR    IT 

 









Legend :    VFR   Marginal VFR   IFR   Intensive IFR   Very Intensive IFR
Visi :
Ceiling :
>= 8 km
>= 3000ft
5 to 8 km
1000 to 3000 ft
1500m to 5 km
500 to 1000 ft
800 to 1500m
200 to 500 ft
< 800m
< 200 ft
Symbols :   Thunderstorms  Fog  Heavy snow  Heavy precipitations  Wind > 20 kt






- Airport Elevation : 59 ft
- IATA code : GYM


MMGM - General José María Yáñez International

CURRENT METAR :
  • 200054Z 25008KT 10SM SKC 21/16 A2993

EXPIRED METARs :
  • 192343Z 24010KT 10SM SKC 22/16 A2993
  • 192255Z 25010KT 10SM SKC 23/13 A2992

TAF TAF MMGM
Valid from the 19 at 18:00 until the 20 at 18:00 UTC


191613Z 1918/2018 34005KT P6SM SKC
BECMG 1920/1921 34012KT
FM200200 02005KT P6SM SCT220
BECMG 2005/2006 00000KT
FM201200 32005KT P6SM BKN220



MET'MAP, your aeronautical weather chart ! - Copyright ORBIFLY December 2007 - Disclaimer

ORBIFLY MET'MAP TEAM :

Programming & Development : Alexandra Zaïnal
Concept & original design : Baudouin d'Aumeries
Assistance for programming : Marc-Olivier Méhu
Technical & hardware support : Manuel Goepfert

Contact : metmap@orbifly.com




SOURCES & CREDITS :

   NOAA       Earth
Advisory